カタログに戻る

STARLINK-35352

運用中通信VLEO
NORAD 66177·PAYLOAD·🇺🇸 United States

打ち上げ Oct 26, 2025 から Cape Canaveral Space Force Station

Loading…

次のパス (今後24時間)

TLE

最新Source: Space-Track

元期: Sep 13, 2026, 22:04 UTC

1 66177U 25243A   26256.91997302  .00019707  00000-0  59273-3 0  9997
2 66177  53.1584  88.7439 0000928 105.2463 254.8642 15.34406304 49503

AllMySatでSTARLINK-35352をリアルタイム追跡

Download on the App Store